sat.trackr.live / text

‹ back to catalog

GHOST-3

NORAD 56958 · 2023-084AC

PAYLOAD ACTIVE UNKNOWN

§ Identity

Operator
Country
US
Launch date
2023-06-12
Launch site
AFWTR
Launch vehicle
Mass (kg)
RCS (m²)

External: N2YO · Heavens-Above · Gunter

§ Orbital elements

Epoch: 2026-05-25T03:26:26.001600Z

Period
93.08 min
Inclination
97.6186°
Eccentricity
0.0006378
Mean motion
15.47025916 rev/d
Perigee alt
421.1 km
Apogee alt
429.8 km
Semi-major
6,803.6 km
B*
3.3651e-4
RAAN
292.4982°
Arg perigee
27.4275°
Mean anomaly
332.7310°
Rev number
16,445

§ Raw data

GHOST-31 56958U 23084AC  26145.14335650  .00016934  00000+0  33651-3 0  99982 56958  97.6186 292.4982 0006378  27.4275 332.7310 15.47025916164458

JSON: /api/v1/satellites/56958 · /tle

For live sub-satellite position, see the globe view (requires WebGL).

§ Visibility from observer

Set your observer location to see the next 7 days of passes ≥ 10°. The values pass through the URL so the page stays shareable.

No JS? Fill the form by hand. The geolocation button needs JavaScript.

§ Radio — SatNOGS DB

ModeDescriptionDownlinkUplink
GFSK Mode U - GFSK38k4 - TT&C downlink 400.500 MHz

1 transmitter · refreshed weekly from db.satnogs.org